Theta_e
323 322 324 328 333 340 343 344 344 346 346 346 347 347 347 347 347 347 347 347 347 347 347 347 347 347 347 347 347 347 347 347 347 347 347 347 346 346 346 347 347 346 346 346 346 346 346 345 346 345 345 345 346 346 345 345 346 346 346 347 347 348 349 350 351 352 351 351 352 352 353 352 353 354 354 354 355 355 355 354 354 354 355 354 354
318 321 323 328 331 338 341 342 344 345 345 345 346 346 345 346 346 346 347 346 347 347 347 347 347 347 347 347 346 346 346 347 346 347 347 346 346 347 347 347 346 346 347 347 346 346 346 346 347 346 345 345 344 344 344 345 345 346 346 346 346 347 348 348 349 350 352 352 351 351 350 351 352 353 354 355 355 354 354 353 353 354 354 355 353
317 320 323 329 330 336 338 339 341 342 342 343 343 342 343 344 344 345 346 346 346 346 347 347 346 346 347 346 347 347 346 346 346 347 347 346 346 346 346 347 346 346 347 347 347 346 347 347 346 346 346 346 344 344 344 345 345 346 346 346 346 346 347 347 348 350 351 352 351 349 348 348 351 353 354 354 355 354 354 353 353 351 354 354 354
317 319 322 327 332 333 335 336 337 338 338 339 339 339 341 341 341 342 343 344 345 345 345 345 345 346 346 346 345 346 345 345 346 345 345 345 345 345 345 345 346 346 346 347 346 346 347 348 347 347 346 348 347 347 346 346 345 346 346 346 347 347 346 347 347 348 351 351 350 348 348 351 350 352 354 354 355 354 353 353 351 352 354 354 354
315 318 322 327 332 332 332 334 335 336 336 336 336 337 338 338 339 340 340 341 342 342 342 342 343 343 343 345 346 345 346 345 345 346 345 345 346 345 345 345 345 346 346 347 346 346 347 347 347 347 347 347 346 347 348 348 347 346 346 346 346 346 346 346 346 348 350 349 349 347 348 350 353 351 352 353 353 354 352 353 352 353 354 354 354
314 317 321 326 330 331 330 332 333 334 334 334 334 335 335 336 336 337 337 337 337 338 339 339 340 340 341 341 344 345 345 345 345 345 346 345 345 345 344 344 345 346 346 346 346 346 346 346 347 347 347 346 347 347 347 347 347 347 346 346 346 346 346 346 346 348 349 348 346 348 347 351 350 352 352 353 354 354 352 352 353 354 354 353 354
314 317 320 325 328 328 328 330 331 331 332 332 332 332 333 333 333 333 333 333 334 335 336 337 337 337 338 339 340 340 340 340 340 343 343 344 344 343 343 343 344 344 346 347 347 345 346 346 347 346 347 346 346 346 347 347 347 347 347 347 348 347 346 347 347 347 346 346 344 344 346 349 351 353 352 352 353 354 353 353 354 354 354 353 352
313 315 319 323 325 326 327 328 329 330 330 330 330 330 330 330 330 330 330 330 331 331 333 333 333 333 334 335 335 335 335 335 336 338 340 339 339 339 339 340 342 343 345 345 346 345 346 346 346 346 345 344 344 345 346 346 347 347 347 347 347 347 347 348 347 346 344 344 343 344 344 346 349 352 351 352 353 353 353 353 354 354 353 355 351
310 312 316 321 324 323 325 326 327 328 328 328 327 328 328 327 327 328 328 328 328 329 329 330 330 330 330 331 330 331 331 331 332 334 333 333 333 333 334 334 335 337 339 342 343 344 345 345 345 346 345 343 342 342 343 344 346 346 347 347 347 347 347 348 347 343 344 346 344 343 345 344 345 348 349 350 352 353 353 353 353 353 352 354 351
308 311 315 319 322 322 323 324 325 326 326 326 325 326 326 326 325 325 326 326 326 326 326 327 327 327 327 327 327 327 327 327 328 329 329 328 328 328 329 330 331 332 334 335 337 339 340 341 342 343 344 342 340 341 341 342 342 344 345 346 346 346 346 347 346 343 345 345 345 345 345 345 344 344 346 348 351 352 352 350 349 347 349 350 349
307 309 312 316 318 320 322 323 323 324 324 324 324 324 324 324 323 323 324 324 324 324 324 324 324 324 324 324 324 324 324 325 325 325 325 324 324 326 327 328 328 328 328 329 331 333 334 336 337 339 341 339 340 339 340 341 341 342 343 344 345 346 345 345 343 346 345 346 346 346 345 344 346 343 345 347 350 351 351 350 347 347 348 350 350
303 306 310 313 314 316 319 320 321 322 322 322 323 322 322 322 322 322 322 321 322 322 322 322 321 321 322 322 322 322 322 322 322 322 322 322 322 323 325 325 326 325 326 326 327 329 330 332 333 334 337 337 338 336 339 340 340 341 342 342 343 343 342 341 343 345 346 346 345 346 345 344 343 341 345 347 349 350 349 349 350 351 352 352 352
303 303 306 310 313 312 315 318 318 319 320 320 321 321 320 320 320 320 320 319 319 319 319 319 318 319 319 319 319 319 319 319 319 319 319 319 319 321 323 323 323 323 323 324 324 326 327 329 330 330 330 330 331 334 336 336 337 335 336 338 338 338 338 337 341 344 344 345 345 346 347 346 345 346 346 346 347 349 350 350 351 352 352 351 350
302 302 304 305 307 308 310 313 316 316 317 318 318 318 318 318 318 318 317 317 317 317 317 317 317 316 316 316 316 317 317 317 317 317 317 317 317 319 320 321 321 321 321 322 323 323 324 326 326 326 326 327 327 328 329 330 330 331 332 334 335 334 333 334 338 343 344 344 345 346 346 346 345 346 345 346 348 349 349 350 350 351 352 351 351
301 304 303 303 304 305 306 309 311 313 314 315 315 316 316 316 316 316 316 315 315 315 315 315 314 314 314 314 314 314 314 314 315 315 314 314 315 316 318 318 319 318 319 319 320 320 322 323 323 323 323 324 325 325 324 324 325 328 331 332 333 332 331 335 338 341 342 343 343 344 344 345 344 346 347 347 347 347 348 349 350 350 351 351 350
303 302 302 302 302 304 304 303 306 309 310 311 312 313 313 314 313 313 313 313 313 312 312 312 312 312 311 311 311 311 312 312 313 312 312 312 313 313 315 317 316 316 317 317 318 318 319 319 320 320 321 322 322 322 321 321 322 324 327 329 330 330 329 328 334 338 340 341 342 343 343 343 344 345 346 347 348 348 347 348 349 349 350 351 350
301 303 302 302 303 302 302 302 302 303 306 308 309 310 311 311 311 311 311 310 310 310 310 310 310 309 308 308 307 307 307 308 309 310 309 309 310 310 312 314 314 314 314 315 315 315 316 316 317 318 318 319 319 319 318 318 320 322 323 325 326 326 325 324 331 334 337 341 342 343 343 344 342 344 346 347 348 348 348 348 348 349 349 351 351
302 301 300 301 301 301 301 302 302 302 303 305 305 306 307 308 308 308 308 308 308 307 306 307 307 306 305 304 304 304 304 305 306 307 307 306 307 307 309 311 312 312 312 313 313 313 313 314 315 315 316 316 316 315 314 315 317 318 319 321 322 322 321 320 327 330 335 337 340 342 342 339 341 343 345 347 346 347 347 348 348 348 348 349 350
300 299 300 300 299 300 300 302 302 302 302 303 304 303 304 305 305 306 305 305 305 304 304 303 303 303 302 302 302 301 301 302 303 303 305 304 304 303 305 308 309 310 310 311 311 311 311 312 313 313 313 314 313 312 312 314 315 315 317 317 317 317 317 322 330 333 336 337 339 340 341 339 342 343 345 346 346 346 347 347 347 347 347 347 349
301 300 299 300 300 300 301 301 301 301 301 301 303 301 301 302 302 303 303 302 302 302 302 301 300 299 299 299 299 301 301 301 301 302 301 302 301 301 303 306 307 308 307 308 308 309 309 310 311 311 312 312 311 309 310 312 314 314 314 314 314 314 323 326 331 333 333 333 336 338 337 338 340 343 345 346 347 346 346 347 347 347 347 348 349
299 299 299 298 300 299 299 300 300 300 300 300 301 301 300 300 301 300 300 300 300 299 299 299 299 299 299 299 301 301 301 301 301 301 301 300 299 300 301 303 305 305 305 306 306 307 307 308 309 309 310 309 307 307 308 309 311 312 311 312 313 318 319 323 326 329 331 332 333 336 336 338 340 342 344 344 344 345 344 345 346 347 347 348 348
298 298 298 298 298 299 299 299 299 300 300 300 301 301 301 300 301 301 300 300 299 298 299 300 299 300 299 300 300 299 300 300 300 299 301 300 300 298 299 301 302 302 302 304 304 304 305 307 307 308 307 307 306 307 308 309 308 309 310 312 314 314 315 315 314 317 325 330 332 332 334 336 339 341 343 343 344 344 345 345 346 347 347 348 348
297 297 297 297 299 298 298 298 299 299 300 300 301 300 300 301 300 300 300 299 299 299 300 299 300 300 300 300 299 299 300 300 298 298 299 297 298 297 298 299 300 300 300 301 301 302 304 304 305 305 305 304 305 306 306 307 308 308 308 310 310 311 312 312 312 311 314 320 327 329 332 334 336 339 342 343 343 343 343 344 344 344 346 347 347
297 297 297 298 298 298 299 299 298 299 300 300 300 300 300 300 300 300 300 300 299 299 299 299 299 299 299 299 298 299 299 299 298 297 299 299 300 298 297 297 298 299 298 300 300 301 302 302 303 303 303 304 304 304 304 305 306 307 308 307 309 309 309 310 309 311 311 313 315 322 328 331 335 337 339 339 340 340 342 343 344 344 345 346 347
297 297 297 296 297 297 298 298 299 299 299 299 300 299 300 299 299 299 299 298 299 299 298 299 298 298 298 298 298 298 299 299 299 298 298 298 299 298 299 298 299 299 298 299 299 300 300 301 301 302 302 302 302 303 304 304 304 305 306 306 307 308 307 308 308 309 312 313 313 317 321 324 327 332 337 340 341 341 342 343 343 343 343 344 345
297 296 296 296 297 297 298 297 297 298 299 299 299 297 299 299 299 299 298 298 299 298 298 298 297 297 297 297 297 298 298 298 298 297 297 297 297 297 297 297 297 297 297 298 298 298 299 299 299 300 300 301 301 302 302 303 303 304 304 306 306 306 307 306 306 307 309 310 312 314 316 317 318 319 325 335 338 339 341 341 343 343 343 343 344
296 296 296 296 296 296 297 298 297 297 298 298 298 298 298 298 298 298 298 297 298 298 296 296 296 296 296 296 296 296 296 296 296 296 296 296 296 296 295 296 296 296 296 296 296 296 296 296 297 298 298 299 300 301 301 302 303 303 304 304 305 305 306 306 306 306 307 308 309 312 314 315 317 320 322 324 331 337 339 340 341 341 341 342 342
296 296 296 295 296 296 296 297 296 297 297 297 297 297 297 298 297 297 297 295 297 296 296 295 296 295 295 295 295 295 295 295 295 295 294 296 295 295 296 295 295 295 295 295 294 294 294 295 295 296 297 298 298 299 300 301 301 302 302 303 304 304 304 305 305 306 306 307 308 309 312 315 316 317 321 323 326 332 337 340 341 341 341 342 342
296 295 295 295 296 296 295 295 296 295 296 297 296 297 297 297 297 297 296 295 297 295 295 296 295 295 294 294 294 294 294 294 294 294 294 294 295 295 294 294 294 294 294 294 294 293 293 293 294 294 295 296 297 298 298 299 300 301 301 302 302 303 304 304 305 305 306 306 307 307 310 312 312 313 316 320 323 325 329 336 339 341 342 342 342
296 295 296 295 296 295 295 295 295 296 296 296 297 296 297 296 296 296 295 296 296 295 295 294 294 294 293 293 293 293 293 292 293 293 293 293 294 294 294 293 293 293 293 293 292 292 292 292 293 294 294 294 295 296 297 298 299 300 300 301 301 302 302 302 303 304 304 305 306 306 307 310 312 313 315 316 319 321 324 327 335 338 339 340 341
295 295 295 295 296 295 295 295 296 296 297 296 297 295 296 295 295 295 296 295 295 295 294 294 294 293 293 293 293 292 292 293 292 292 292 292 293 293 293 293 293 293 293 292 293 292 292 292 292 292 293 293 294 295 296 296 297 298 300 300 300 301 302 302 302 303 303 304 304 306 306 307 309 309 310 313 315 318 321 324 327 334 337 340 341
295 295 295 296 295 295 295 295 295 295 296 295 296 296 295 295 295 295 294 295 295 294 294 293 293 293 293 292 292 292 292 292 292 292 292 292 292 292 292 292 292 292 292 292 291 292 292 292 293 293 293 293 293 294 296 295 296 297 298 299 300 300 300 301 302 302 303 303 304 304 304 305 306 308 308 310 313 315 316 318 320 324 331 335 337
296 296 295 296 295 295 294 294 295 295 294 294 295 295 294 294 294 294 294 294 294 294 293 293 292 293 292 292 291 291 291 291 291 291 291 291 291 291 291 292 292 291 291 291 291 292 292 292 292 292 292 293 293 294 295 294 294 295 296 297 297 298 299 300 301 301 302 302 303 304 304 304 304 305 307 309 309 311 314 316 317 319 321 326 333
295 295 296 294 295 296 296 295 295 294 295 294 294 294 294 294 293 294 293 293 293 293 292 293 292 292 292 291 291 291 290 291 291 290 290 290 290 290 290 290 291 291 291 291 290 290 290 291 291 291 291 291 292 292 292 292 293 293 294 295 295 296 297 298 299 300 301 301 302 303 303 303 303 303 304 306 308 309 310 312 315 317 318 322 330
296 295 294 294 295 296 295 294 295 295 294 294 294 294 294 294 293 293 293 293 293 292 292 292 291 292 291 291 291 290 290 290 290 289 289 289 289 289 290 290 290 290 289 290 289 290 290 290 290 289 290 291 291 291 291 291 291 291 293 293 294 294 295 296 297 297 299 301 301 302 302 302 302 303 303 303 303 306 310 310 312 315 318 319 320
295 295 294 295 294 295 295 295 295 295 294 294 294 294 293 293 293 293 292 293 292 292 291 291 291 291 291 291 291 290 289 289 289 289 288 289 288 288 289 289 289 289 289 289 289 289 289 289 290 290 289 289 289 289 290 290 290 290 291 292 292 293 293 294 295 296 298 299 300 301 301 301 302 302 302 302 302 303 306 308 309 311 314 316 321
295 294 294 294 293 294 294 295 294 294 294 293 294 293 292 292 291 292 291 291 291 291 291 291 291 291 290 290 290 290 289 289 289 289 288 288 288 288 288 289 289 288 288 288 288 289 288 288 289 289 289 288 288 288 289 289 289 289 290 291 291 292 292 293 294 295 297 297 298 300 301 301 301 301 301 301 302 302 303 306 308 308 309 310 312
295 294 295 294 293 294 294 294 294 294 293 293 292 292 292 292 291 291 291 290 291 291 291 290 290 290 290 289 290 289 289 289 288 288 288 288 288 288 288 288 288 288 288 288 288 288 288 288 287 288 288 287 287 287 287 288 288 288 288 289 290 290 291 292 294 295 295 295 297 298 299 301 301 301 302 302 303 303 303 304 306 308 308 309 311
294 294 294 294 294 294 294 294 294 293 293 293 292 292 291 291 291 291 290 290 290 290 290 289 290 290 290 290 289 289 288 288 288 288 287 287 287 287 287 288 287 287 287 287 287 288 288 288 287 287 288 288 287 287 286 287 287 287 287 288 289 290 291 292 293 293 294 296 296 297 300 299 300 301 302 302 302 303 302 303 303 304 304 306 311
293 293 293 294 293 294 294 293 293 293 292 292 292 291 290 290 289 289 289 289 290 289 290 289 290 289 289 289 289 289 288 288 287 287 287 286 286 286 287 287 287 287 286 286 286 286 286 286 286 286 286 286 287 287 287 286 286 286 286 288 290 291 292 292 293 294 295 296 296 297 297 299 300 300 301 302 302 302 302 302 302 302 303 304 307
293 292 292 293 293 292 292 292 293 292 292 291 290 290 290 289 289 289 289 289 289 289 289 289 289 289 289 288 288 288 288 287 287 287 286 286 285 286 286 286 287 286 285 285 286 286 286 286 285 285 285 284 285 287 287 287 284 284 288 289 289 290 291 291 292 293 294 295 296 296 297 298 299 299 300 301 301 301 301 302 302 303 303 304 305
291 291 292 292 292 292 292 292 292 292 291 291 291 290 291 290 289 289 289 289 288 288 288 289 289 289 288 288 288 288 287 287 286 287 286 286 285 285 285 285 286 285 285 285 285 285 285 285 285 284 286 284 284 286 286 285 284 284 283 283 285 289 291 291 291 292 294 295 296 296 297 297 297 298 299 299 300 300 301 301 302 302 303 302 304
292 291 292 292 292 291 292 292 292 291 291 291 291 290 290 290 289 289 288 288 289 289 289 289 288 288 288 288 288 287 287 286 287 286 285 285 285 284 285 285 285 285 284 284 285 284 285 285 284 283 283 285 284 286 285 286 282 284 284 282 283 284 287 289 292 293 294 295 296 297 297 297 298 299 299 299 299 300 300 301 301 301 302 302 303
291 291 291 291 291 292 291 292 291 291 291 291 290 291 290 289 289 289 288 288 287 288 288 287 287 287 286 287 287 287 286 286 286 286 285 285 285 284 284 284 284 285 284 283 284 284 284 284 284 284 283 281 283 284 286 285 284 283 280 283 282 282 280 285 288 291 293 293 292 293 294 294 296 298 298 298 299 300 301 301 302 303 304 304 305
291 291 291 291 291 291 291 292 291 291 291 290 290 290 288 287 287 287 287 286 286 286 286 286 287 287 286 286 286 287 286 285 285 285 285 284 284 284 284 284 284 284 284 283 283 283 284 284 284 283 283 282 281 283 284 285 284 285 282 280 281 281 283 285 285 284 288 288 290 292 292 293 294 295 296 297 298 299 299 301 302 301 301 305 304
291 291 292 291 291 291 291 291 291 291 290 290 290 289 288 287 286 285 284 285 285 285 285 286 287 286 286 287 287 286 285 285 285 285 284 284 284 284 284 283 283 283 283 283 283 283 283 283 284 283 282 283 282 281 281 284 284 284 284 283 283 280 280 282 281 278 287 288 288 289 290 291 291 291 292 293 293 296 299 299 300 300 301 301 300
291 292 292 291 291 291 291 291 291 290 290 289 289 289 287 287 287 286 287 287 286 288 288 287 286 286 286 285 285 286 285 285 285 284 284 284 283 283 283 283 283 283 283 282 282 282 283 283 283 283 282 283 282 280 280 281 283 283 283 283 283 283 283 280 278 280 278 283 287 287 288 290 291 292 293 294 294 294 296 297 298 299 299 299 298
291 292 291 291 290 291 291 290 290 290 290 289 289 288 287 287 286 286 286 286 286 286 286 285 285 285 284 284 285 285 285 284 284 284 283 283 283 283 283 283 282 283 282 282 282 282 283 283 283 283 282 282 281 280 280 281 280 280 283 282 282 283 283 282 282 279 278 276 279 285 287 287 289 290 291 291 292 293 295 297 298 299 299 300 301
291 291 290 291 291 291 291 290 290 289 289 289 288 287 287 287 286 286 285 286 286 286 285 285 284 285 284 284 284 284 283 283 283 283 283 283 282 282 282 282 282 282 282 282 282 282 282 281 281 281 281 281 281 281 280 280 280 280 280 280 281 280 281 281 281 281 278 277 277 279 281 286 288 288 289 291 291 292 293 294 296 297 298 298 300
291 292 291 291 291 291 290 289 289 289 289 288 288 287 287 286 285 285 285 285 285 285 284 284 284 284 282 283 283 283 283 283 283 283 283 282 282 282 282 281 281 281 281 281 281 281 281 281 281 281 281 280 281 281 280 280 280 280 280 280 278 279 279 279 279 279 279 279 277 277 280 281 280 284 288 288 290 291 292 293 294 296 297 298 298
291 291 291 290 290 290 289 289 288 288 288 287 287 286 286 286 285 285 285 284 284 284 283 283 282 282 282 282 282 282 282 282 282 282 282 282 282 281 281 281 281 281 280 281 280 280 281 281 281 281 280 280 279 280 280 280 280 280 280 279 278 278 278 277 277 278 278 277 277 278 279 281 280 281 284 288 289 290 290 291 292 296 298 298 299
Wind_Speed
7 9 9 11 15 14 15 15 14 15 13 13 14 14 14 14 14 14 13 13 12 11 10 10 10 9 9 8 9 9 9 9 8 8 9 8 8 8 9 9 10 10 8 9 8 8 8 8 7 7 5 6 6 8 8 8 10 10 9 9 9 9 9 10 10 9 7 8 9 11 11 12 13 14 14 12 11 10 6 6 6 8 8 8 8
8 8 7 9 14 13 14 15 15 16 16 15 15 15 15 14 15 14 14 14 13 13 12 11 11 12 12 12 11 11 11 11 10 9 9 9 9 9 9 9 9 9 10 10 10 9 8 8 9 9 6 5 5 5 7 8 8 9 10 10 9 9 9 9 9 9 7 7 7 9 9 11 12 13 13 12 11 10 7 6 6 8 7 7 5
5 6 6 8 13 11 13 13 14 15 15 15 16 16 15 15 16 16 16 15 15 14 14 14 13 13 13 12 12 12 13 13 13 12 12 12 11 11 10 10 10 10 10 10 10 9 10 10 9 8 9 7 4 5 6 6 7 7 9 11 11 10 9 9 9 8 8 8 8 9 9 10 11 12 12 11 11 11 8 7 7 8 8 7 5
4 5 5 7 8 12 12 12 13 14 14 14 15 15 14 15 15 15 15 16 16 17 17 17 17 16 15 14 13 13 13 13 13 13 13 13 13 13 12 11 11 10 10 10 10 10 11 11 10 10 9 5 5 7 8 8 6 7 7 9 11 12 11 10 9 9 7 7 8 8 8 8 8 8 9 9 10 11 8 6 7 8 11 10 8
4 4 5 5 7 11 11 12 12 13 13 14 14 14 15 15 16 16 16 16 16 16 16 16 16 16 16 16 16 15 15 15 14 14 13 14 15 15 15 14 13 13 12 11 11 11 11 11 12 11 11 12 10 9 7 7 7 6 7 8 9 11 12 11 10 9 8 7 7 8 8 8 7 7 8 9 10 10 8 6 8 11 12 12 11
3 3 4 5 7 9 11 11 12 12 13 14 14 15 15 16 16 16 16 17 16 16 16 16 17 16 16 15 16 17 18 18 18 17 17 16 16 16 16 16 15 14 14 13 13 12 12 12 11 11 12 11 11 11 10 9 8 8 7 8 9 9 10 11 10 8 7 7 9 7 8 7 8 6 7 9 10 10 9 6 10 12 12 14 13
3 4 4 5 6 9 10 11 12 12 13 14 14 15 15 16 16 16 16 17 17 16 17 17 17 17 17 17 18 18 18 17 17 18 18 18 17 17 17 17 17 16 16 16 14 13 13 12 13 13 13 13 13 12 11 11 9 9 9 10 10 10 9 9 9 9 7 8 7 7 6 7 7 6 7 8 10 12 12 12 12 13 14 14 15
4 3 3 5 7 8 10 11 12 12 13 14 14 15 15 15 16 16 16 16 16 17 17 17 17 17 17 17 17 17 18 17 17 17 18 17 17 16 16 16 16 17 17 17 17 15 14 14 14 14 13 14 14 14 13 12 12 11 10 9 10 10 10 8 7 8 8 8 8 7 7 7 7 7 8 10 10 11 13 14 13 14 14 15 11
3 4 4 5 7 10 10 11 12 13 13 14 14 15 15 15 15 16 16 16 16 16 16 17 17 17 17 17 17 17 17 17 17 17 16 16 15 15 15 15 16 17 17 17 18 18 18 16 16 15 13 14 15 15 15 14 13 13 13 12 10 10 9 8 8 7 9 8 8 7 8 8 8 7 7 9 10 12 12 13 12 13 13 14 10
4 5 6 6 7 9 10 11 12 13 14 14 14 15 15 15 16 16 17 16 17 17 17 17 17 17 17 17 17 17 17 16 16 16 16 16 16 16 15 16 15 15 15 17 16 17 17 19 18 18 17 16 15 15 16 16 15 14 13 13 13 12 10 9 8 9 9 9 9 9 8 7 9 8 9 10 11 11 12 11 10 10 10 9 11
5 5 5 6 9 10 10 11 12 13 13 14 14 15 15 16 16 16 17 17 17 17 17 17 17 17 17 17 17 17 17 17 16 16 16 16 16 16 16 15 15 15 15 15 16 16 16 16 16 17 17 17 16 16 16 16 16 15 15 13 12 12 12 11 10 9 9 9 10 9 10 5 7 10 9 10 10 12 11 11 11 10 11 14 14
6 5 5 5 8 10 10 11 12 13 13 14 14 15 15 15 16 16 16 17 17 17 17 17 17 17 17 17 17 17 17 17 16 16 16 16 16 16 16 16 16 15 15 15 16 16 16 16 16 16 17 16 15 15 15 15 16 17 17 15 14 13 11 10 9 8 9 10 10 9 10 10 11 10 8 9 12 13 12 11 12 14 15 15 16
6 5 4 4 6 10 10 11 12 12 13 13 14 14 15 15 15 16 16 16 16 17 17 17 17 17 17 17 17 17 17 16 16 16 16 16 16 16 16 16 16 16 16 16 15 16 16 16 16 16 16 16 15 15 15 16 16 16 17 17 17 17 14 14 9 9 9 10 9 9 9 10 10 10 10 13 13 14 15 14 14 15 15 17 17
6 5 5 5 5 8 11 11 12 12 13 13 13 14 14 15 15 15 15 16 16 16 16 16 16 16 16 16 16 16 16 16 16 16 16 16 16 16 16 16 16 16 16 16 16 16 16 15 16 16 16 16 16 16 15 15 15 15 15 15 15 15 15 11 11 9 10 11 9 10 10 9 10 10 9 11 14 15 15 15 14 14 15 16 15
6 5 4 4 4 6 10 11 11 12 13 13 13 13 14 14 14 14 15 15 15 15 15 16 16 16 16 16 16 16 16 15 16 16 16 16 16 16 16 16 16 16 16 16 16 16 16 16 16 16 16 16 16 16 17 17 16 15 14 14 14 14 14 10 9 9 9 9 10 10 10 9 10 10 11 12 16 17 16 16 16 15 15 15 14
4 4 4 4 4 5 5 8 11 11 12 13 13 13 13 13 14 14 14 14 15 15 15 15 15 15 15 15 15 15 15 15 15 16 16 16 16 16 16 16 16 16 16 16 16 16 16 16 16 16 16 16 16 16 17 17 17 16 15 14 14 13 13 10 8 9 9 10 10 10 9 10 8 8 11 14 16 17 18 17 17 17 16 15 15
4 3 4 4 4 5 5 6 7 10 11 12 12 12 12 13 14 14 14 14 14 15 14 14 14 14 13 13 13 13 14 14 14 14 15 15 15 15 16 15 16 16 16 16 15 15 15 15 15 15 15 16 16 16 17 17 17 17 17 16 15 14 13 11 9 9 9 10 10 10 10 9 9 8 11 15 16 17 17 18 19 18 16 16 14
3 3 5 4 4 5 5 5 5 6 6 8 12 12 12 12 13 13 13 13 14 14 14 14 13 13 12 12 11 11 12 12 12 13 12 13 13 13 14 14 15 15 15 15 15 15 15 15 15 15 15 15 15 16 16 16 15 16 16 17 16 16 14 14 9 9 10 10 10 11 10 12 9 11 14 15 16 17 18 18 19 19 19 17 15
4 4 4 4 5 5 5 4 5 5 5 5 5 8 11 12 12 12 13 13 13 13 13 13 13 12 12 11 10 10 10 12 11 12 12 12 13 11 13 13 13 13 14 14 14 15 15 15 14 14 14 15 15 16 15 13 13 14 15 15 17 16 17 12 8 8 9 9 9 9 11 11 8 12 15 16 17 18 19 18 18 19 19 20 17
5 5 5 4 4 5 4 4 4 4 5 5 5 7 9 10 11 12 12 12 12 12 12 11 11 11 10 9 9 7 8 8 11 9 11 12 13 12 13 13 13 14 14 13 13 14 14 14 14 14 14 14 15 16 14 12 12 12 13 15 14 17 9 6 8 8 8 9 9 9 10 10 13 15 16 18 18 19 19 19 20 20 20 20 19
4 5 4 5 5 5 4 4 4 5 5 5 5 5 5 6 7 9 10 11 10 10 9 9 7 7 7 6 4 6 5 5 6 7 8 8 11 12 13 13 13 13 14 14 14 13 14 14 14 14 14 14 14 15 10 10 11 11 12 13 14 9 7 8 9 8 8 8 9 9 10 10 13 17 18 19 21 20 21 21 20 20 21 21 20
6 6 5 5 5 4 5 4 4 5 5 4 3 3 3 5 5 5 6 6 7 6 7 6 7 6 6 4 5 4 4 4 5 6 4 6 6 9 10 11 11 11 13 13 12 12 14 13 13 14 14 13 13 7 6 7 9 10 11 11 8 6 6 8 9 9 9 9 9 9 9 11 14 17 20 21 21 21 20 21 21 21 21 21 20
7 6 6 6 4 5 4 5 4 5 6 5 3 3 3 3 3 3 3 5 5 6 5 6 6 6 5 5 4 4 4 3 5 5 4 4 4 6 8 8 9 9 12 10 9 9 12 12 12 13 13 11 7 6 6 6 6 8 9 7 6 6 7 8 8 8 9 9 9 11 10 13 16 17 19 22 23 22 22 22 22 22 21 21 21
8 7 7 5 5 4 5 4 4 4 3 3 3 3 2 2 2 2 3 3 4 4 5 5 5 6 5 5 4 5 4 3 4 4 4 4 4 4 6 6 7 7 12 7 8 7 12 9 10 11 8 6 6 6 7 7 7 7 6 6 6 7 8 7 7 8 8 10 9 13 14 17 18 19 21 22 23 23 22 22 23 23 22 21 21
8 7 6 6 6 6 5 5 4 4 4 4 3 2 2 2 2 3 3 3 3 4 4 4 5 5 6 4 4 4 3 3 4 4 4 4 4 5 5 5 6 6 9 6 6 7 7 7 6 7 6 7 7 7 7 7 7 7 7 7 7 7 7 7 7 8 8 9 10 11 13 15 18 20 21 22 23 24 25 24 23 23 23 24 23
7 7 7 7 7 6 6 5 5 4 3 3 3 3 1 2 3 3 3 3 3 3 3 4 4 5 5 5 4 4 4 3 4 5 5 5 5 5 5 5 6 6 7 6 7 7 7 7 7 7 7 6 7 7 7 7 8 8 7 7 8 8 7 7 8 8 8 9 10 12 13 16 19 20 21 22 23 24 25 25 25 24 23 23 24
8 7 7 7 7 7 6 6 5 5 4 4 4 3 2 2 3 3 2 3 3 3 3 3 4 5 5 5 5 5 5 5 5 5 6 5 5 5 5 5 6 5 6 6 7 7 7 7 7 7 7 7 7 7 7 8 8 8 8 8 8 8 8 8 8 8 8 9 10 13 14 15 18 19 20 21 23 24 26 27 27 27 25 25 25
8 9 8 7 7 8 7 7 5 5 5 5 4 4 3 3 3 3 3 3 2 3 3 3 3 4 6 6 6 5 5 5 6 5 6 5 6 5 5 5 5 5 5 5 6 6 6 6 7 8 8 8 8 8 7 7 8 8 9 9 8 8 8 8 9 10 9 9 10 12 13 14 16 18 19 20 21 22 24 26 27 29 28 25 25
11 10 8 8 9 8 8 7 6 6 5 5 4 3 3 3 3 3 3 2 3 3 3 3 4 4 5 6 6 5 5 5 5 5 5 5 5 5 5 4 4 4 5 4 5 6 5 6 6 7 7 7 8 8 8 8 8 8 8 9 9 9 9 9 9 9 10 10 10 11 13 14 18 20 21 21 22 22 23 24 26 27 27 27 26
11 10 10 8 8 9 8 7 7 6 5 5 4 4 3 3 3 3 3 2 3 3 3 3 3 3 3 5 5 4 4 5 5 5 6 5 5 5 4 4 4 3 4 4 5 5 5 5 6 6 7 7 7 7 8 8 8 8 9 9 9 9 9 9 10 10 10 10 10 11 14 14 16 20 21 22 23 23 23 24 25 27 29 29 28
12 12 10 9 8 9 8 7 6 5 5 4 4 4 3 3 3 3 2 3 2 2 2 2 2 2 3 4 3 4 4 4 5 5 5 5 5 4 4 4 3 3 4 4 4 5 5 5 6 6 7 7 7 7 7 8 8 8 9 9 10 9 10 10 10 10 11 10 10 11 12 15 16 19 21 22 22 23 23 23 24 26 27 28 29
13 13 10 9 9 10 9 8 7 6 5 5 5 4 3 3 3 2 2 2 2 2 2 2 2 2 2 3 3 3 4 4 4 5 5 5 5 5 5 5 5 4 4 4 6 5 5 6 6 6 7 7 7 7 7 7 8 8 9 10 10 10 10 10 10 11 11 11 11 12 11 12 15 16 19 22 24 24 24 24 25 25 25 27 30
10 12 11 10 11 10 9 8 7 6 6 5 4 4 3 3 2 1 2 1 1 1 1 1 1 1 1 2 2 3 3 4 4 5 6 5 5 6 5 5 5 5 6 6 7 6 5 6 6 7 6 7 7 7 7 8 9 9 9 10 10 10 10 10 10 11 12 12 12 12 12 13 13 15 16 18 23 25 25 25 25 25 26 27 28
10 10 11 12 9 7 6 6 7 7 6 5 4 4 3 3 2 2 2 1 1 0 1 0 1 0 0 1 1 2 3 4 4 5 5 5 6 5 5 5 5 7 7 6 6 6 6 7 7 7 6 7 7 7 8 8 8 8 9 9 9 10 10 11 11 11 11 12 12 12 12 12 12 12 12 15 17 20 25 25 25 26 26 26 26
10 11 13 13 11 9 7 6 7 7 7 6 5 4 4 3 3 2 2 1 1 1 1 1 1 1 1 1 1 2 3 4 4 5 5 5 6 5 5 4 5 6 6 5 6 6 6 7 7 7 7 7 7 8 8 9 10 10 9 9 9 10 10 11 11 12 12 12 12 12 12 12 12 12 12 13 14 18 20 24 25 26 27 27 29
14 12 12 12 12 11 9 8 9 8 7 7 6 5 5 4 3 2 2 2 1 1 1 2 2 2 2 2 2 2 3 4 4 5 5 5 6 6 5 4 5 5 5 5 5 6 6 7 7 7 8 8 8 9 8 10 10 10 10 10 10 10 11 11 12 12 11 12 12 12 12 13 13 12 13 13 13 15 18 19 23 25 25 26 27
14 14 14 13 12 11 11 10 10 10 9 8 6 6 4 4 3 3 2 2 2 2 2 2 2 2 2 2 2 2 3 4 4 5 5 6 6 6 6 5 5 5 5 5 5 5 5 6 6 6 7 8 9 11 10 9 10 11 11 11 11 11 11 11 11 11 11 12 13 13 13 14 14 16 15 14 14 13 17 19 21 25 27 28 30
13 15 14 14 13 12 11 10 9 9 8 7 7 6 5 4 3 3 3 3 3 3 3 2 3 3 3 3 3 3 4 4 5 5 5 6 7 7 7 6 5 5 4 5 5 5 6 6 7 7 7 8 8 9 11 10 10 11 12 12 13 12 12 12 12 12 12 14 13 14 14 13 13 14 14 14 14 14 14 16 20 22 23 23 28
12 15 14 13 11 11 9 10 9 9 8 8 7 6 5 4 3 2 3 4 3 4 3 3 3 4 4 4 4 4 4 5 5 5 5 6 6 7 7 6 5 5 4 5 5 6 5 6 8 8 7 7 8 10 10 10 11 11 12 15 14 15 13 12 12 12 13 14 14 14 13 14 14 14 14 14 14 15 16 15 13 13 15 21 23
13 14 15 14 12 11 10 9 10 9 8 8 7 6 5 5 5 4 4 4 4 4 4 4 4 4 4 4 5 5 5 4 5 5 5 6 6 7 7 7 5 5 5 5 5 5 7 8 9 8 10 8 8 8 9 10 11 13 15 15 14 14 15 13 14 14 13 13 13 13 13 13 13 13 14 13 13 15 15 16 15 15 15 19 23
14 15 15 15 14 13 12 12 11 10 9 9 8 7 7 6 4 5 5 5 5 5 5 5 5 5 5 5 5 5 5 5 5 5 6 6 7 7 8 7 5 5 5 5 6 8 8 8 8 8 9 9 8 6 7 8 11 13 11 13 14 13 16 17 17 15 14 13 12 13 12 12 13 13 12 12 14 15 15 16 15 15 15 15 17
16 17 17 16 15 15 14 12 11 11 10 9 8 7 7 6 6 5 5 5 5 5 5 5 6 5 6 6 5 6 6 6 6 6 6 7 7 7 7 7 5 5 5 6 8 8 9 8 7 8 6 8 8 6 7 8 8 9 15 17 14 11 13 13 15 15 15 13 13 13 12 13 14 14 13 13 15 16 15 15 15 16 16 16 17
17 18 17 17 16 15 13 13 11 11 10 9 8 7 6 5 5 4 4 4 4 3 3 4 4 5 6 6 6 6 6 6 7 6 6 6 7 8 7 6 6 5 6 6 7 8 7 8 8 7 8 7 7 6 6 4 8 10 11 12 13 18 13 7 10 13 11 11 11 12 12 14 16 14 13 14 14 15 14 14 16 17 17 17 17
16 17 17 18 14 13 13 13 11 11 9 9 8 7 6 5 5 3 3 3 3 3 5 5 6 7 7 7 6 6 7 7 7 7 6 7 8 8 7 6 5 5 6 6 7 8 7 7 7 8 8 11 7 7 5 6 6 7 10 5 13 10 17 11 9 10 10 13 16 16 15 15 16 16 14 14 15 15 15 15 17 16 16 18 17
16 16 16 16 11 15 14 13 11 11 9 9 9 8 7 6 5 4 3 4 4 5 5 6 7 7 6 6 7 7 7 7 7 7 7 8 8 8 7 6 6 5 6 7 7 7 7 7 8 8 8 8 12 9 8 7 9 7 8 10 9 8 10 14 18 20 11 13 16 14 14 15 15 15 14 15 16 16 17 17 17 17 19 18 17
15 15 14 15 13 14 14 13 11 10 10 11 11 9 8 8 7 7 6 6 6 6 7 7 6 6 6 4 5 6 7 7 7 7 7 7 8 8 7 6 6 5 5 6 7 8 8 8 7 7 9 9 10 11 11 7 8 10 12 12 10 12 15 16 13 17 13 12 14 16 17 16 16 17 17 18 19 17 16 17 17 17 16 17 18
16 13 14 15 15 14 14 14 12 10 10 11 13 10 9 8 9 8 6 6 6 5 4 3 3 4 3 5 5 6 7 7 7 7 7 7 8 8 7 6 6 6 6 7 7 8 8 8 7 7 8 8 9 11 12 11 9 10 11 14 15 15 15 13 14 15 21 16 7 10 12 13 14 15 16 16 17 18 18 18 20 20 20 20 20
15 14 14 14 17 16 15 15 11 11 10 11 13 11 10 9 9 8 7 6 7 5 4 4 4 4 5 6 6 6 6 7 7 7 7 8 8 8 7 6 6 7 6 7 8 8 8 8 8 9 9 9 10 11 12 11 10 11 7 11 13 15 17 18 19 16 17 20 24 13 12 15 16 17 18 19 20 20 20 19 19 19 18 19 17
15 15 16 15 15 14 14 14 13 12 11 14 12 12 10 9 9 8 8 7 6 5 4 4 4 4 6 6 7 7 7 8 8 8 8 8 8 7 6 6 6 7 7 7 8 8 10 10 10 9 9 10 10 11 12 12 11 12 10 11 12 13 13 15 16 16 17 17 22 22 21 14 13 16 16 16 17 18 19 19 19 20 19 19 17
13 14 13 13 13 13 14 16 15 12 12 14 13 13 12 9 9 9 10 8 6 5 5 5 5 5 6 7 7 7 6 6 6 7 8 8 8 7 6 7 7 7 7 8 9 10 10 11 11 11 11 12 11 12 13 13 12 13 12 12 12 12 13 13 14 15 17 20 21 21 20 23 20 15 14 17 18 18 19 19 20 21 21 20 19
11 14 13 14 13 13 15 17 16 12 13 15 14 14 12 11 10 10 10 9 8 6 6 6 6 6 6 6 6 6 6 6 6 7 8 8 7 6 6 6 7 7 8 9 9 9 9 10 10 12 13 14 13 13 14 15 14 14 15 13 14 14 13 14 13 13 15 16 17 22 21 20 22 23 18 16 16 18 19 19 21 20 19 20 19
Wind_Direction
28 355 343 334 337 358 18 29 39 40 41 46 48 49 50 49 50 50 48 47 44 40 39 37 34 36 31 25 21 18 13 9 1 2 2 358 9 10 8 2 358 349 346 346 349 348 352 352 346 339 336 336 335 331 331 330 330 331 332 332 331 332 335 335 335 337 324 317 315 319 319 312 310 304 301 298 294 289 273 230 235 248 250 232 245
334 339 335 340 338 8 26 29 38 44 44 46 49 51 49 51 52 51 50 50 51 54 55 53 51 47 43 39 38 34 32 27 22 16 16 14 14 19 11 6 1 350 346 342 343 341 342 341 340 344 344 329 334 311 313 312 321 323 325 325 322 323 324 326 329 328 325 311 309 310 312 304 296 294 294 294 291 284 266 225 235 257 250 256 218
322 331 339 354 336 15 33 38 38 46 42 48 48 48 49 50 51 51 54 54 53 54 54 55 54 51 47 47 45 43 41 40 38 35 35 32 31 27 20 12 5 358 349 339 335 334 336 336 336 335 341 7 330 302 288 295 295 306 310 316 323 319 319 319 317 324 321 317 310 310 293 271 264 273 278 285 285 280 273 223 230 248 266 273 230
348 343 346 358 11 31 37 41 46 48 49 47 50 48 49 50 51 49 49 51 49 50 50 51 50 49 48 48 46 44 44 43 40 38 40 40 35 35 30 25 18 9 357 348 343 341 341 336 333 332 333 357 339 319 309 292 283 284 297 306 314 320 317 316 314 313 316 314 309 312 300 293 274 242 263 278 280 280 285 230 228 237 262 269 254
346 347 5 12 29 37 34 43 47 50 52 54 52 51 50 50 50 51 50 50 49 47 46 46 45 44 43 42 42 45 45 44 43 43 41 41 35 33 27 23 22 17 10 3 5 357 348 345 339 335 339 342 347 337 330 324 298 279 289 303 311 315 317 313 311 310 308 305 309 298 290 287 287 285 276 280 280 281 288 250 229 240 245 253 252
351 6 19 20 39 41 34 45 49 52 54 55 55 54 52 52 52 50 50 50 49 49 49 48 46 45 42 42 43 43 41 40 37 37 38 38 35 33 29 22 19 15 16 14 12 6 9 0 358 352 348 348 350 348 340 325 309 303 296 299 299 302 306 307 307 306 304 307 282 270 276 277 283 287 290 288 286 286 286 261 243 243 242 244 244
20 8 15 35 52 40 34 45 52 52 55 56 57 56 55 55 55 53 52 50 49 49 49 50 50 48 46 44 42 41 40 40 36 34 35 36 35 34 30 23 19 16 12 10 10 8 10 3 6 5 10 8 4 357 351 346 328 315 313 311 307 300 295 298 301 305 305 293 282 280 281 285 292 293 283 284 288 288 288 281 268 250 248 248 247
46 17 27 51 49 43 44 52 53 56 55 57 58 59 59 58 56 55 53 53 50 49 49 48 48 48 47 47 46 43 41 39 36 35 32 34 32 31 29 27 25 19 16 12 10 7 3 4 5 4 13 16 8 4 0 350 342 334 320 308 306 304 301 292 283 290 298 289 283 284 283 290 289 287 287 287 286 288 289 289 281 263 251 251 247
69 42 43 53 58 41 47 54 58 57 56 57 57 57 59 59 58 57 56 53 53 52 51 50 49 48 47 46 46 45 45 43 40 37 35 33 29 27 23 18 19 16 13 15 10 11 10 10 9 10 14 19 8 359 357 358 352 343 336 328 320 310 302 298 286 279 275 275 287 279 282 278 279 280 283 288 287 285 288 290 289 277 259 258 250
78 69 47 53 53 46 55 56 59 60 59 58 57 56 56 56 57 57 55 54 53 52 52 51 50 49 48 47 46 44 45 44 42 39 37 35 31 28 26 25 23 17 12 9 6 4 4 8 8 6 11 16 6 360 354 352 350 348 342 336 330 326 315 296 290 270 274 275 277 287 280 284 282 281 284 288 286 285 284 287 291 296 297 269 251
79 65 62 63 50 48 56 62 61 61 61 61 59 58 56 56 55 54 53 53 52 51 50 50 50 49 47 46 44 44 42 41 40 38 36 33 30 27 27 26 26 24 19 15 11 8 5 3 3 5 8 8 6 2 357 351 346 344 343 341 335 329 329 322 297 288 281 282 283 280 286 186 256 275 274 274 277 280 282 281 282 279 269 263 256
77 73 66 60 59 47 56 60 62 63 64 62 62 60 59 57 56 54 53 52 51 50 49 48 48 47 46 45 43 42 41 40 38 37 34 31 28 26 24 24 23 22 20 18 14 11 8 6 5 3 6 7 3 359 356 353 350 347 346 343 342 337 331 326 307 289 286 284 280 277 277 283 285 276 273 270 274 274 277 277 275 274 272 266 256
80 73 70 65 64 46 54 57 62 65 65 65 64 62 62 61 58 56 54 53 51 50 49 48 47 46 45 43 42 41 39 38 37 36 32 30 27 24 22 22 21 19 17 15 14 12 9 7 6 4 2 359 358 358 357 356 353 347 346 345 345 345 341 327 305 293 286 284 283 278 273 268 270 271 268 271 271 274 276 278 280 279 278 275 266
89 79 71 69 66 50 52 56 60 64 64 66 65 64 64 62 61 60 58 55 53 50 49 48 47 46 45 43 42 40 38 36 36 33 30 27 25 22 20 21 19 18 15 12 11 10 8 8 6 3 1 359 356 354 353 351 348 345 342 339 336 337 338 321 311 295 285 280 278 280 279 275 272 279 272 265 269 271 275 277 275 276 277 277 272
91 69 68 75 83 72 55 53 59 60 63 65 65 65 65 64 62 61 60 58 56 53 51 49 47 46 44 43 41 39 38 37 35 33 30 27 25 23 19 18 18 16 12 10 9 7 4 4 4 3 360 357 355 353 351 348 346 344 343 340 337 336 339 328 316 301 290 287 280 273 269 267 266 274 275 271 275 274 275 275 274 274 276 276 270
91 91 81 79 82 78 77 61 57 57 61 62 62 64 62 63 61 60 58 58 56 55 53 52 50 47 44 42 39 38 36 36 34 33 30 26 24 21 17 17 16 14 11 8 8 6 2 1 359 359 357 356 354 353 350 346 343 342 340 339 337 337 336 335 307 299 291 282 277 274 272 269 266 269 270 272 271 274 276 277 276 275 274 273 271
109 109 105 98 89 94 84 76 67 71 61 60 62 62 63 62 60 58 58 56 55 53 51 50 49 48 47 44 42 40 39 37 36 34 32 27 23 20 15 16 14 12 8 7 6 3 1 359 356 356 354 353 351 350 347 343 341 340 339 336 337 335 332 328 303 290 287 285 282 277 275 274 270 262 264 269 272 275 274 276 279 278 274 272 268
137 145 129 115 104 94 91 89 84 80 83 79 65 59 64 64 63 61 60 59 57 55 52 49 46 45 43 42 43 43 42 38 38 35 35 31 24 20 14 15 11 9 6 3 2 360 358 356 353 352 350 350 348 345 342 339 337 338 336 336 334 329 319 304 283 278 276 279 278 274 272 269 276 276 272 271 271 274 274 273 276 278 278 274 267
157 154 140 137 118 108 102 94 86 85 81 78 80 66 59 63 62 62 61 60 59 55 52 49 42 39 35 34 31 35 33 34 27 29 25 27 23 17 11 12 10 7 4 0 358 355 353 352 350 348 346 345 343 338 333 330 332 333 334 334 329 322 305 283 267 275 277 275 272 270 268 276 283 274 272 274 275 272 272 274 273 274 277 276 271
164 162 148 138 119 113 111 103 93 86 85 85 84 81 68 66 65 63 62 61 57 55 51 45 44 32 28 23 25 21 27 30 20 20 16 18 18 10 7 8 7 5 1 357 355 353 350 347 346 343 341 339 337 330 323 322 327 329 330 328 323 308 292 293 301 289 280 275 274 275 277 283 279 276 274 275 275 276 275 273 273 271 271 272 273
171 172 164 144 131 120 121 110 101 98 92 91 87 83 72 84 79 69 67 61 59 57 51 50 37 40 21 21 18 28 32 31 24 14 10 14 16 5 4 4 4 3 358 354 352 351 348 344 342 340 337 332 329 316 308 319 322 322 325 320 303 291 312 315 313 302 290 284 276 271 280 279 278 277 275 275 277 277 277 277 275 273 271 271 269
174 169 165 153 146 133 129 133 119 106 104 100 96 94 100 75 70 73 66 70 61 63 57 47 41 31 21 24 25 27 22 33 26 13 11 9 22 2 1 359 359 359 356 348 347 346 345 341 339 338 333 329 320 313 321 322 315 321 314 290 285 313 312 317 313 302 299 289 282 278 292 292 286 282 283 281 277 273 274 276 275 273 270 268 267
178 172 168 168 156 144 151 132 127 125 116 112 110 106 97 91 86 84 93 74 70 55 57 51 41 31 26 23 25 26 10 27 26 6 336 345 15 0 360 358 357 356 352 339 340 341 339 337 337 336 329 325 322 328 324 323 321 317 304 308 322 315 317 308 301 296 295 299 295 294 293 286 282 281 279 279 276 274 272 271 272 273 272 269 268
178 177 164 163 163 154 146 138 135 139 140 114 118 107 98 91 75 71 69 70 58 59 57 48 41 33 27 26 21 13 0 13 7 5 331 6 17 7 0 355 359 359 351 343 342 349 335 335 334 333 328 341 333 326 324 322 321 321 319 314 313 316 310 305 300 296 292 293 291 301 310 300 294 285 277 274 277 278 276 276 276 273 272 271 269
175 165 161 167 166 159 154 143 144 139 134 130 124 110 111 104 85 78 66 60 51 51 48 51 44 33 30 23 13 8 358 8 9 4 2 3 1 2 2 3 2 358 354 354 352 347 343 342 340 338 340 333 330 326 324 319 318 316 313 310 308 305 302 297 297 294 292 290 287 294 300 303 300 296 290 286 284 279 276 272 272 273 273 273 271
163 174 173 162 168 165 162 151 148 142 137 128 119 119 145 100 86 69 74 59 59 50 45 43 40 33 25 16 8 9 2 9 8 5 0 359 360 2 0 1 357 356 357 353 354 347 343 344 339 339 334 330 325 320 318 314 313 314 309 308 303 302 298 297 291 289 288 289 288 294 296 295 293 292 294 291 283 279 279 278 276 274 273 275 273
174 180 168 166 167 164 163 165 153 142 138 129 131 122 102 96 78 68 66 68 62 52 50 43 43 36 23 24 10 6 5 6 5 2 1 356 359 357 357 356 357 356 356 351 350 346 342 340 340 335 330 324 320 318 314 311 307 305 303 301 299 296 294 292 291 288 287 285 285 287 286 285 285 287 288 286 287 288 283 277 274 271 271 272 273
178 177 172 167 170 169 166 168 159 156 150 146 131 127 109 102 111 121 93 65 59 61 55 47 40 40 34 22 12 8 3 1 0 356 354 353 353 349 347 350 354 351 348 346 345 341 334 333 331 328 326 324 322 319 314 312 310 304 301 299 299 296 293 290 289 287 284 283 284 281 276 278 284 286 287 287 286 284 286 284 276 273 269 267 269
184 176 172 172 171 168 173 170 159 162 156 149 133 124 126 119 105 98 89 67 71 65 55 50 41 36 37 25 18 6 -0 355 353 349 340 346 340 339 337 345 338 342 341 336 341 334 330 329 327 327 324 320 317 316 317 309 304 303 300 299 298 295 292 291 288 285 283 283 284 283 283 286 285 285 284 283 283 283 283 285 286 282 278 271 267
185 174 172 175 169 171 177 171 167 160 157 150 136 136 135 114 92 81 82 89 75 70 65 59 49 36 40 27 21 5 353 348 346 340 336 332 329 327 322 327 323 331 334 329 337 328 325 320 323 321 321 317 311 309 307 304 302 300 298 296 294 293 293 291 289 287 286 283 282 282 278 273 276 281 283 284 282 281 280 279 280 280 277 277 275
180 180 177 174 168 174 172 168 158 160 159 144 131 122 115 100 89 91 83 79 76 86 73 69 59 50 35 24 11 6 347 341 338 332 325 320 319 321 321 320 317 331 331 327 330 321 315 314 318 317 316 315 307 306 304 303 300 299 297 296 295 293 291 289 287 286 284 283 282 282 282 274 271 274 278 279 279 279 278 277 276 277 278 279 277
184 182 179 170 169 177 170 167 165 161 158 141 131 123 109 96 92 92 91 77 73 77 78 74 68 52 33 19 2 1 340 323 321 319 317 314 318 327 321 327 326 329 331 330 326 318 310 310 312 310 306 303 306 304 305 302 301 299 301 295 294 293 292 290 287 286 284 282 281 281 280 279 271 266 269 273 276 276 276 275 274 275 277 277 273
185 180 176 169 175 174 168 167 164 160 162 141 130 123 115 111 116 120 115 101 94 59 64 70 39 53 19 12 355 339 323 317 315 315 317 315 317 316 321 322 325 332 326 325 321 317 316 319 317 314 308 309 302 305 307 302 302 303 302 299 298 294 291 288 286 285 283 281 281 280 280 280 278 272 263 261 265 269 272 272 271 270 269 271 272
177 179 171 178 174 171 165 162 165 163 154 143 138 140 140 136 148 157 124 136 81 89 100 44 60 321 291 320 310 319 317 313 316 318 319 315 313 306 314 317 325 328 321 323 328 330 322 321 319 317 316 310 309 311 311 306 301 301 300 300 296 294 294 291 288 285 282 279 278 277 276 275 277 277 274 264 260 264 268 270 270 269 267 268 269
176 178 179 180 174 173 168 163 170 162 155 146 152 148 151 162 175 163 136 93 110 223 204 193 223 227 237 219 247 299 302 306 312 313 312 306 302 298 299 306 325 317 315 324 321 321 318 319 321 318 312 308 308 309 307 303 303 301 299 300 297 296 290 287 286 284 280 281 279 277 275 275 273 273 275 277 264 252 253 262 267 268 267 265 264
185 177 176 177 179 176 173 167 171 164 163 156 162 160 165 174 174 144 131 130 205 222 222 220 230 236 226 246 233 264 287 297 301 302 300 299 297 296 295 310 313 308 311 310 309 310 315 313 309 309 312 309 310 307 306 301 298 298 299 296 293 290 288 284 280 280 278 280 277 275 274 274 273 273 276 272 275 275 267 265 267 269 270 270 268
183 177 180 177 180 176 176 174 175 172 167 164 165 168 166 168 175 157 141 170 215 221 226 228 237 235 244 245 241 254 274 281 285 289 288 291 292 293 294 297 302 298 296 300 293 298 302 300 299 301 299 303 304 301 302 301 302 299 297 292 287 286 283 281 280 280 279 273 275 274 272 271 270 267 267 266 268 268 269 260 258 261 262 264 267
185 182 182 180 182 175 179 179 175 174 169 166 170 170 171 168 173 166 183 200 216 236 236 232 235 244 239 243 240 254 262 271 274 278 282 284 284 284 287 286 289 287 286 292 294 295 292 292 297 296 297 297 297 301 301 300 298 296 293 289 286 282 279 277 276 277 274 273 269 266 268 270 269 268 266 268 271 269 268 266 262 258 255 255 258
187 185 182 182 181 178 179 177 176 174 170 169 165 167 162 173 159 176 193 220 219 228 231 236 236 237 238 238 245 247 249 260 265 266 273 282 283 279 277 281 281 281 286 290 293 290 287 292 293 293 288 287 291 292 291 296 293 289 287 285 281 275 273 270 270 270 268 268 270 270 269 265 264 265 266 265 267 269 270 269 269 270 262 251 247
186 187 184 183 183 178 178 177 181 176 173 172 170 175 176 181 183 180 205 215 224 216 220 229 236 232 231 237 239 243 251 262 265 268 269 275 280 279 277 277 273 276 285 286 290 296 298 296 291 292 292 288 279 281 288 295 293 290 286 279 272 274 270 266 267 265 266 266 267 266 265 266 265 266 264 264 264 265 267 268 267 265 265 265 257
187 187 186 187 187 181 178 183 181 179 178 178 181 180 178 178 184 197 203 200 207 213 221 224 223 231 228 235 241 243 250 259 264 261 264 269 270 272 271 269 270 272 275 281 284 287 287 286 290 288 288 290 289 289 296 303 303 298 288 284 288 279 269 265 262 260 260 261 261 265 267 268 266 264 265 265 265 264 265 268 267 267 267 268 264
192 188 190 188 187 184 184 182 180 182 187 186 180 182 184 183 179 188 194 197 201 211 219 211 216 225 231 235 240 244 249 256 257 257 259 260 267 269 268 269 273 277 280 282 280 278 280 280 288 293 282 289 292 297 299 311 300 311 320 317 300 275 259 257 250 251 251 254 260 264 266 267 267 269 270 270 267 266 264 265 265 266 266 266 264
190 191 190 185 186 185 186 184 184 183 187 184 178 182 177 175 181 172 192 199 217 236 240 237 228 229 231 231 235 242 248 250 248 250 257 260 262 265 266 272 272 281 286 282 279 276 278 282 285 288 302 290 283 285 283 275 293 307 296 290 304 329 310 271 257 253 252 257 260 261 264 266 268 269 270 272 271 270 267 264 262 264 264 263 261
191 190 189 188 183 186 184 185 183 184 184 181 180 172 168 165 180 193 195 228 227 211 236 241 238 236 236 233 234 237 245 250 251 251 251 254 257 261 266 264 269 274 278 281 280 278 277 282 287 293 297 301 297 294 283 279 279 307 310 309 309 306 301 315 330 294 286 281 270 267 268 270 274 275 274 271 272 270 268 264 261 261 262 262 261
194 188 187 186 183 185 183 182 180 184 182 176 177 169 162 170 181 188 212 226 238 240 234 232 223 225 229 225 226 228 238 245 247 246 250 257 258 257 261 267 272 276 278 276 275 277 282 279 285 285 285 290 298 294 286 270 263 246 255 297 302 280 264 297 327 297 277 255 258 258 259 263 265 270 271 271 269 269 268 266 264 264 263 266 272
197 191 185 185 177 181 181 179 181 181 181 177 177 175 178 184 181 189 196 202 213 205 213 217 204 207 220 219 230 233 241 246 247 250 251 255 257 257 260 269 275 277 275 278 281 282 278 280 281 282 282 277 282 292 287 270 255 251 242 242 244 269 298 302 314 291 314 266 265 260 261 263 266 267 266 268 269 268 264 263 261 260 260 262 265
199 183 181 184 181 182 179 179 180 181 179 179 177 178 183 190 196 200 205 208 216 214 215 221 228 237 249 254 256 252 248 254 257 258 259 259 263 265 269 274 279 278 278 277 277 278 280 279 277 272 275 280 277 278 280 285 281 253 243 244 248 254 260 277 279 300 298 300 261 264 269 265 265 263 263 260 260 261 261 262 263 264 263 262 260
187 180 180 182 183 183 177 180 181 180 178 176 181 184 186 190 193 202 212 220 221 222 204 225 237 254 259 263 267 262 256 255 261 261 259 257 259 264 264 267 269 271 272 271 273 275 277 274 267 267 269 262 262 264 277 278 273 281 254 256 254 253 253 253 255 262 278 294 298 278 254 264 261 257 257 261 262 263 262 261 259 258 257 254 253
186 181 182 182 181 180 177 179 182 182 179 180 181 186 191 188 192 197 210 218 221 226 225 230 241 238 249 256 259 264 261 255 252 255 252 252 253 256 261 264 266 271 269 269 271 274 275 275 272 268 264 264 258 263 267 270 270 271 275 263 261 257 256 253 254 251 259 273 277 285 289 279 264 260 259 258 260 259 258 259 259 261 261 262 261
184 177 177 175 177 175 179 181 185 184 179 181 183 186 190 189 195 202 205 210 208 216 219 226 226 230 244 246 250 256 255 257 254 250 251 250 251 256 263 266 268 272 271 271 276 274 272 270 267 266 266 263 260 258 258 264 267 269 264 268 266 263 258 255 249 249 252 247 263 276 284 290 285 269 269 266 262 262 261 258 258 258 257 255 254
172 174 179 180 178 179 182 184 185 182 181 182 184 188 190 194 201 202 204 208 209 213 220 224 224 231 241 246 247 255 261 263 265 261 254 251 253 255 261 270 277 275 274 277 275 277 278 275 272 266 261 259 261 259 259 259 262 264 263 259 258 254 253 255 256 252 249 258 263 265 268 272 277 284 270 265 266 263 259 259 260 255 252 252 253